Skip Page Navigation
NASA JPL Caltech
NASA Logo - Jet Propulsion Laboratory + View the NASA Portal
+ Near-Earth Object (NEO) Program
Search JPL
JPL Home Earth Solar System Stars & Galaxies Technology
JPL Solar System Dynamics
BODIES ORBITS EPHEMERIDES TOOLS PHYSICAL DATA DISCOVERY FAQ SITE MAP
JPL Small-Body Database Browser
Search: [ help ]  
10120 Ypres (1992 YH2)
Classification: Main-belt Asteroid          SPK-ID: 2010120
Ephemeris | Orbit Diagram | Orbital Elements | Physical Parameters | Discovery Circumstances ]

[ hide orbit diagram ]
Orbit Diagram
Note: Make sure you have Java enabled on your browser to see the applet. This applet is provided as a 3D orbit visualization tool. The applet was implemented using 2-body methods, and hence should not be used for determining accurate long-term trajectories (over several years or decades) or planetary encounter circumstances. For accurate long-term ephemerides, please instead use our Horizons system.
Orbit Viewer

Additional Notes: the orbits shown in the applet are color coded. The planets are white lines, and the asteroid/comet is a blue line. The bright white line indicates the portion of the orbit that is above the ecliptic plane, and the darker portion is below the ecliptic plane. Likewise for the asteroid/comet orbit, the light blue indicates the portion above the ecliptic plane, and the dark blue the portion below the ecliptic plane.

Orbit Viewer applet originally written and kindly provided by Osamu Ajiki (AstroArts), and further modified by Ron Baalke (JPL).


Orbital Elements at Epoch 2456400.5 (2013-Apr-18.0) TDB
Reference: MPO240286 (heliocentric ecliptic J2000)
 Element Value Uncertainty (1-sigma)   Units 
e 0.0653444 n/a  
a 3.1783144 n/a AU
q 2.9706294 n/a AU
i 10.51267 n/a deg
node 86.55605 n/a deg
peri 330.60264 n/a deg
M 242.51377 n/a deg
tp 2457075.9266063
(2015-Feb-22.42660630)
n/a JED
period 2069.6346991
5.67
n/a
n/a
d
yr
n 0.17394374 n/a deg/d
Q 3.3859994 n/a AU
  Orbit Determination Parameters
   # obs. used (total)      669  
   first obs. used      1982-??-??  
   last obs. used      2012-09-08  
   # oppositions      16  
   planetary ephem.      DE403  
   condition code      0  
   fit RMS      0.55  
   data source      MPC:mpn  
   producer      MPCLINUX  

Additional Information
 T_jup = 3.171 

Ephemeris | Orbit Diagram | Orbital Elements | Physical Parameters | Discovery Circumstances ]

Physical Parameter Table
Parameter Symbol Value Units Sigma Reference Notes
absolute magnitude H 12.9 mag n/a PDS3 (MPC 33886)  

10120 Ypres           Discovered 1992 Dec. 18 by E. W. Elst at Caussols.
With Bruges and Ghent, Ypres virtually controlled Flanders in the thirteenth century. During the Middle Ages, it became a major cloth-weaving city. Within the bulge of the British lines during World War I, Ypres was completely destroyed, subsequently to be rebuilt in its original style.
NOTE: some special characters may not display properly (any characters within {} are an attempt to place the proper accent above a character)
Reference: 19990928/MPCPages.arcLast Updated: 2010-06-11

Alternate Designations
 1992 YH2 = 1982 BL4 
Ephemeris | Orbit Diagram | Orbital Elements | Physical Parameters | Discovery Circumstances ]
ABOUT SSD CREDITS/AWARDS PRIVACY/COPYRIGHT GLOSSARY LINKS
FirstGov 2013-May-23 17:36 UT
(server date/time)  
NASA Home Page
Site Manager:   Donald K. Yeomans
Webmaster  Alan B. Chamberlin